This is the latest recevied weather packets stored in our database for station/object KQ7A. If no packets are shown the sender has not sent any weather packets the latest 10 day(s).
| Time | Temp. | Humidity | Pressure | Rain* | Wind** | Luminosity | Snow |
|---|---|---|---|---|---|---|---|
| 1777960283 | 7.22° C | 94% | 1013 hPa | 1.78 mm | - | 0 W/m² | - |
| 1777959980 | 7.22° C | 94% | 1013.1 hPa | 1.27 mm | - | 0 W/m² | - |
| 1777959678 | 7.22° C | 94% | 1013.2 hPa | 1.27 mm | - | 0 W/m² | - |
| 1777959375 | 7.22° C | 93% | 1013.8 hPa | 0 mm | - | 0 W/m² | - |
| 1777959071 | 7.22° C | 92% | 1013.8 hPa | 1.78 mm | - | 0 W/m² | - |
| 1777958769 | 7.22° C | 92% | 1013.8 hPa | 1.78 mm | - | 0 W/m² | - |
| 1777958466 | 7.22° C | 91% | 1013.7 hPa | 0 mm | - | 0 W/m² | - |
| 1777958163 | 7.78° C | 90% | 1014 hPa | 0 mm | - | 0 W/m² | - |
| 1777957861 | 7.78° C | 89% | 1013.7 hPa | 0 mm | - | 0 W/m² | - |
| 1777957558 | 7.78° C | 89% | 1013.8 hPa | 1.78 mm | - | 0 W/m² | - |
| 1777957256 | 7.78° C | 89% | 1013.5 hPa | 1.78 mm | - | 0 W/m² | - |
| 1777956952 | 7.78° C | 89% | 1013 hPa | 0 mm | - | 0 W/m² | - |
| 1777956650 | 7.78° C | 88% | 1013.2 hPa | 0 mm | - | 0 W/m² | - |
| 1777956347 | 7.78° C | 89% | 1013 hPa | 0 mm | - | 0 W/m² | - |
| 1777956043 | 7.78° C | 87% | 1013 hPa | 1.27 mm | - | 0 W/m² | - |
| 1777955739 | 7.78° C | 87% | 1013.2 hPa | 1.27 mm | - | 0 W/m² | - |
| 1777955436 | 7.78° C | 85% | 1013.1 hPa | 0 mm | - | 0 W/m² | - |
| 1777955132 | 7.78° C | 83% | 1013.3 hPa | 0 mm | - | 0 W/m² | - |
| 1777954830 | 7.78° C | 82% | 1013 hPa | 0 mm | - | 0 W/m² | - |
| 1777954526 | 7.78° C | 83% | 1013.2 hPa | 0 mm | - | 0 W/m² | - |
| 1777954224 | 7.78° C | 86% | 1013 hPa | 0 mm | - | 0 W/m² | - |
| 1777953921 | 7.78° C | 84% | 1013.2 hPa | 0 mm | - | 0 W/m² | - |
| 1777953618 | 7.78° C | 84% | 1013.5 hPa | 0 mm | - | 0 W/m² | - |
| 1777953314 | 7.78° C | 83% | 1013.2 hPa | 0 mm | - | 0 W/m² | - |
| 1777953011 | 7.78° C | 82% | 1013.5 hPa | 0 mm | - | 0 W/m² | - |
* Rain latest hour (hover to see other rain measurements)
** Current wind speed in m/s (hover to see current wind gust speed)